Simultaneous Nadir Overpasses (SNOs) Predictions

Prediction of SNOs between LANDSAT-8 and METOP-B Satellite Orbit:

Table of predicted SNOs for the next 14.0 days since TLE Epoch: 9/13/2014
Index Date (LANDSAT-8) Time (LANDSAT-8) Lat,Lon (LANDSAT-8) SZA (LANDSAT-8 ) Date (METOP-B) Time (METOP-B) Lat,Lon (METOP-B) SZA (METOP-B ) Distance(km) Time Diff (sec)
1 09/13/2014 14:56:30 -81.19, 176.88 100.22 09/13/2014 14:56:02 -81.19, 176.93 100.23 0.87 28
2 09/13/2014 15:45:56 81.19, -15.41 79.81 09/13/2014 15:46:42 81.19, -15.55 79.81 2.38 46
3 09/16/2014 10:30:44 -81.19,-116.70 99.12 09/16/2014 10:30:22 -81.18,-116.85 99.15 2.82 22
4 09/16/2014 11:20:10 81.19, 50.99 80.90 09/16/2014 11:21:01 81.20, 51.06 80.94 1.38 51
5 09/19/2014 06:04:59 -81.18, -50.41 98.03 09/19/2014 06:04:42 -81.19, -50.30 98.03 1.83 17
6
